Location: Holyhead Bay
(53.3667°N, 4.6667°W)
Time: 22:50:13
(UTC+00:00)

ADEOS Rocket - Pass Details

Date: 24 April 2021
Orbit: 859 x 1306 km, 98.7° (Epoch: 14 May)

Event Time Altitude Azimuth Distance (km) Brightness Sun altitude
Rises 23:10:10 0° 69° (ENE) 4,060 6.3 -21.9°
Reaches altitude 10° 23:16:05 10° 31° (NNE) 3,214 6.2 -22.2°
Maximum altitude 23:16:54 10° 24° (NNE) 3,211 6.4 -22.2°
Drops below altitude 10° 23:17:44 10° 18° (NNE) 3,240 6.5 -22.3°
Sets 23:23:55 0° 341° (NNW) 4,285 7.8 -22.5°
